SCP
0 0 0 0 0 0 0 0 0 0 0 0 0 0 0 0 0 0 0 0 0 0 0 0 0 0 0 0 0 0 0 0 0 0 0 0 0 0 -0 -0 -0 -0 -0 -0
0 0 0 0 0 0 0 0 0 0 0 0 0 0 0 0 0 0 0 0 0 0 0 0 0 0 0 0 0 0 0 0 0 0 0 0 0 0 0 0 0 -0 -0 -0
0 0 0 0 0 0 0 0 0 0 0 0 0 0 0 0 0 0 0 0 0 0 0 0 0 0 0 0 0 0 0 0 0 0 0 0 0 0 0 0 0 0 0 0
0 0 0 0 0 0 0 0 0 0 0 0 0 0 0 0 0 0 0 0 0 0 0 0 0 -0 0 0 0 0 0 0 0 0 0 0 0 0 0 0 0 0 0 0
0 0 0 0 0 0 0 0 0 0 0 0 0 0 0 0 0 0 0 0 0 0 0 0 -0 -0 0 0 0 0 0 0 0 0 0 0 0 0 0 0 0 0 0 0
0 0 0 0 0 0 0 0 0 0 0 0 0 0 0 0 0 0 0 0 0 0 0 0 -0 0 0 0 0 0 0 0 0 0 0 0 0 0 0 0 0 0 0 0
0 0 0 0 0 0 0 0 0 0 0 0 0 0 0 0 0 0 0 0 0 0 0 0 0 0 0 0 0 0 0 0 0 0 0 0 0 0 0 0 0 0 0 0
0 0 0 0 0 0 0 0 0 0 0 0 0 0 0 0 0 0 0 0 0 0 0 0 0 0 0 0 0 0 0 0 0 0 0 0 0 0 0 0 0 0 0 0
0 0 0 0 0 0 0 0 0 0 0 0 0 0 0 0 0 0 0 0 0 0 0 0 0 0 0 0 0 0 0 0 0 0 0 0 0 0 0 0 0 0 0 0
0 0 0 0 0 0 0 0 0 0 0 0 0 0 0 0 0 0 0 0 0 0 0 0 0 0 0 0 0 0 0 0 0 0 0 0 0 0 0 0 0 0 0 0
0 0 0 0 0 0 0 0 0 0 0 0 0 0 0 0 0 0 0 0 -0 0 0 0 0 0 0 0 0 0 0 0 0 0 0 0 0 0 0 0 0 0 0 0
0 0 0 0 0 0 0 0 0 0 0 0 0 0 0 0 0 0 0 -0 0 0 0 0 0 0 0 0 0 0 0 0 0 0 0 0 0 0 0 0 0 0 0 0
0 0 0 0 0 0 0 0 0 0 0 0 0 0 0 0 0 0 -0 0 0 0 0 0 0 0 0 0 0 0 0 0 0 0 0 0 0 0 0 0 -0 0 0 0
0 0 0 0 0 0 0 0 0 0 0 0 0 0 0 0 0 0 0 0 0 0 0 0 0 0 0 0 0 0 0 0 0 0 0 0 0 0 0 0 0 0 0 0
0 0 0 0 0 0 0 0 0 0 0 0 0 0 0 0 0 0 0 0 0 0 0 0 0 0 0 0 0 0 0 0 0 0 0 0 0 0 0 0 0 0 0 0
0 0 0 0 0 0 0 0 0 0 0 0 0 0 0 0 0 0 0 0 0 0 0 0 0 0 0 0 0 0 0 0 0 0 0 0 0 0 0 0 0 0 0 0
0 0 0 0 0 0 0 0 0 0 0 0 0 0 0 0 0 0 0 0 0 0 0 0 0 0 0 0 0 0 0 0 0 0 0 0 0 0 0 0 0 0 0 0
0 0 0 0 0 0 0 0 0 0 0 0 0 0 -0 0 0 0 0 0 0 0 0 0 0 0 0 0 0 0 0 0 0 0 0 0 0 0 0 0 0 0 0 0
0 0 0 0 0 0 0 0 0 0 0 0 0 0 -0 0 0 0 0 0 0 0 0 0 0 0 0 0 0 0 0 0 0 0 0 0 0 0 0 0 0 0 0 0
0 0 0 0 0 0 0 0 0 0 0 0 0 0 -0 -0 0 0 0 0 0 0 0 0 0 0 0 -0 0 0 0 0 0 0 0 0 0 0 0 0 0 0 0 0
0 0 0 0 0 0 0 0 0 0 0 0 0 -0 -0 0 -0 0 0 0 0 0 -0 0 0 0 0 0 0 0 0 0 0 0 0 0 0 0 0 0 0 0 0 0
0 0 0 0 0 0 0 0 0 0 0 0 0 0 0 0 0 0 0 0 0 0 -0 -0 -0 -0 0 -0 -0 -0 -0 0 0 0 0 0 0 0 0 0 0 0 -0 -0
0 0 0 0 0 0 0 0 0 0 0 0 0 0 0 0 0 0 0 0 0 0 -0 0 0 -0 -0 0 0 0 -0 0 0 0 0 0 0 0 -0 -0 -0 -0 -0 0
0 0 0 0 0 0 0 0 0 0 0 0 0 0 0 0 0 0 0 0 0 0 -0 -0 -0 0 -0 0 0 0 -0 0 -0 0 0 0 0 0 -0 -0 -0 -0 -0 0
0 0 0 0 0 0 0 0 0 0 0 0 0 0 0 0 0 0 0 0 0 0 0 0 -0 -0 0 0 0 0 0 0 0 0 0 0 0 0 0 0 0 0 0 0
-0 -0 0 0 0 0 0 0 0 0 0 0 0 0 0 0 0 0 0 0 0 0 0 0 -0 0 -0 0 0 0 0 0 0 0 0 0 0 0 0 0 0 0 0 0
0 0 0 0 0 0 0 0 0 0 0 0 0 0 0 0 0 0 0 0 0 0 0 0 0 0 -0 0 0 0 0 0 0 0 0 0 0 0 0 0 0 0 0 0
Wind_Speed_500mb
9 8 9 6 9 16 11 3 5 3 4 6 6 6 22 22 17 14 14 19 28 32 32 28 30 32 33 32 32 31 31 34 36 43 43 34 27 22 22 23 14 13 17 23
8 6 10 10 7 7 7 4 5 4 3 5 16 27 21 17 16 14 16 25 29 30 30 31 33 35 34 32 30 28 33 36 35 32 43 37 30 26 29 23 8 12 17 17
3 2 11 6 4 2 2 2 1 4 5 17 7 15 14 16 14 15 20 23 28 30 31 34 35 32 31 29 23 28 36 32 28 27 39 39 33 27 23 26 23 20 18 14
4 5 2 6 7 2 5 5 5 2 4 7 14 16 15 10 10 12 18 23 27 28 29 30 31 30 27 25 30 32 31 28 25 31 40 40 36 33 27 24 25 24 20 15
6 4 8 7 6 5 7 9 2 6 11 14 20 18 10 6 10 15 20 23 24 25 29 30 33 28 23 24 30 26 30 25 23 34 36 43 35 32 29 27 28 29 32 26
4 4 3 8 7 21 7 7 3 6 17 18 12 4 5 2 6 15 20 23 19 25 24 24 27 26 26 29 24 29 26 30 31 32 32 39 36 35 37 37 36 36 37 37
3 1 10 7 9 3 7 9 1 2 7 18 6 2 8 3 8 15 21 19 20 25 25 24 25 25 28 23 30 30 28 29 30 30 32 33 30 26 31 34 35 36 37 36
4 3 6 11 5 5 6 7 3 5 5 8 10 10 6 2 9 15 18 15 20 25 25 26 28 25 23 27 29 26 25 27 30 27 30 28 29 30 31 33 43 55 58 59
10 9 5 9 2 15 9 7 5 6 10 12 11 6 3 7 9 11 12 15 20 21 19 21 19 16 19 24 26 25 23 25 25 26 29 29 30 33 38 44 46 44 46 44
5 3 2 7 19 14 9 9 10 13 15 10 7 7 1 5 7 9 10 12 16 14 18 20 13 8 17 26 26 23 21 28 36 38 40 49 59 59 53 42 43 40 41 39
4 6 4 12 14 15 12 14 20 18 9 7 10 6 3 5 9 9 7 9 12 13 15 18 12 8 18 24 25 24 36 48 48 45 52 45 45 43 37 38 42 46 46 41
9 11 12 9 26 19 15 21 19 16 12 11 7 7 5 8 12 11 6 7 11 14 13 15 6 19 23 28 32 35 48 46 42 38 35 39 41 42 43 41 39 41 42 41
5 4 16 12 24 22 19 25 18 14 9 9 8 6 7 11 15 16 20 12 16 16 15 11 6 17 28 36 44 43 39 37 32 27 28 31 34 37 36 30 33 32 34 39
9 16 21 30 20 26 22 23 19 14 10 9 6 5 9 11 11 12 13 12 10 14 14 17 13 16 30 31 31 26 23 24 23 25 28 31 27 31 32 27 28 27 29 29
24 2 5 26 22 29 31 25 22 15 13 14 7 9 9 11 10 9 9 10 10 12 11 14 14 33 27 23 30 32 30 25 24 23 21 16 16 23 18 20 24 27 29 29
28 9 17 26 26 33 33 27 24 18 15 15 10 12 11 11 13 10 8 14 12 11 15 26 46 33 24 21 24 24 21 15 15 15 13 13 18 20 20 19 24 29 33 36
35 27 29 32 32 35 32 26 23 19 17 14 12 12 11 10 14 12 11 11 13 19 32 41 30 20 20 17 16 14 15 13 10 11 16 17 16 14 19 18 23 28 30 33
37 15 15 15 31 33 34 32 28 24 16 17 15 11 11 9 11 10 11 15 17 24 33 24 15 14 12 10 5 7 9 5 12 13 14 16 16 15 19 21 22 24 26 27
46 39 23 24 22 25 28 34 34 25 21 23 20 13 10 7 7 11 9 13 18 25 32 28 19 10 1 5 5 7 12 11 12 17 15 14 16 16 16 18 21 23 26 25
46 43 29 25 28 29 27 32 34 31 22 21 22 17 14 11 9 9 15 9 18 25 25 18 16 9 4 8 6 9 11 9 15 16 14 16 16 16 16 17 22 25 24 23
38 39 25 24 35 38 32 30 37 37 27 22 25 21 14 15 10 14 15 14 17 24 21 19 9 4 3 4 7 2 12 12 11 17 16 17 17 18 19 19 22 24 23 23
36 37 34 26 31 35 28 26 36 34 29 22 20 21 18 20 16 14 14 13 13 23 23 19 17 6 2 5 14 10 5 13 14 13 15 16 17 18 20 20 22 23 23 22
23 28 38 31 26 29 29 35 33 27 24 23 21 23 20 15 18 13 19 19 16 15 22 23 17 11 11 12 5 13 8 10 15 14 15 14 15 15 19 20 22 23 24 24
18 17 16 20 26 32 36 37 29 22 18 19 20 19 18 23 25 19 18 20 17 18 17 18 22 26 21 16 10 9 12 7 16 16 14 14 16 15 15 17 20 21 22 23
10 8 15 22 26 29 34 32 28 25 17 16 15 19 15 16 20 16 18 21 23 24 21 17 18 22 29 23 16 13 12 12 13 15 17 12 13 13 12 15 17 18 21 22
18 15 14 20 24 30 32 29 28 26 22 17 17 16 17 20 18 18 14 15 20 25 26 24 22 24 31 28 26 19 20 15 15 18 20 12 11 12 11 12 14 17 20 20
11 12 18 20 20 31 31 31 29 20 21 20 19 20 20 25 25 25 22 23 24 22 26 32 29 25 28 26 24 20 17 15 17 18 15 12 9 9 12 11 13 16 16 18
Wind_Direction_500mb
35 59 71 80 47 40 60 12 87 304 39 354 349 19 115 118 112 88 46 9 356 348 342 339 338 342 342 342 342 345 343 349 359 3 356 7 8 360 339 327 336 341 330 320
35 52 79 74 40 53 36 51 82 57 283 137 108 115 105 96 85 56 17 3 357 353 348 350 348 348 345 345 343 345 358 6 19 22 26 26 26 18 24 32 26 347 340 359
226 248 0 3 6 53 64 58 1 279 266 154 108 96 93 94 65 26 9 358 354 355 355 351 353 353 0 5 5 11 8 32 35 15 12 17 14 30 44 46 41 27 28 44
138 23 235 245 26 281 192 236 162 154 109 152 143 117 101 84 35 18 2 359 358 3 7 8 2 7 6 16 28 27 31 33 26 16 14 19 26 35 31 32 43 35 42 54
106 143 294 314 307 186 198 287 243 131 149 155 142 119 90 48 18 6 5 3 7 12 6 5 11 10 18 33 31 44 34 41 24 15 24 31 42 48 47 48 45 47 54 60
72 48 234 242 310 332 134 301 353 189 196 166 160 41 266 356 350 1 2 7 15 11 6 16 23 25 31 40 51 51 37 24 28 33 35 36 42 54 57 55 55 58 61 64
95 155 287 253 325 159 58 253 200 262 203 177 175 200 130 72 356 10 13 13 22 16 16 21 17 31 65 55 52 38 34 39 39 41 38 37 43 52 55 52 55 57 58 57
86 59 325 360 20 22 201 151 136 100 124 181 174 136 133 63 8 19 14 28 19 12 30 37 51 78 60 47 32 18 21 29 31 39 38 37 34 50 65 62 73 71 68 67
163 217 275 333 97 118 106 111 147 155 138 139 149 150 154 348 26 20 14 16 13 19 38 51 70 56 35 25 18 12 14 22 33 53 49 50 51 68 79 85 82 69 66 69
73 239 256 139 135 136 116 116 135 151 147 163 155 162 222 11 0 354 350 6 15 36 45 40 68 52 15 10 12 15 32 55 65 70 76 82 84 84 85 81 75 65 60 65
285 260 199 202 186 163 153 144 145 142 139 150 143 124 30 6 6 6 2 12 21 39 43 58 69 39 6 18 44 59 79 80 82 85 100 87 76 76 78 70 65 59 61 61
222 224 186 210 186 175 169 157 152 141 137 136 118 60 62 41 31 2 4 74 47 49 59 80 49 40 48 65 75 87 99 96 90 90 92 73 73 66 73 68 57 52 39 45
348 221 194 166 171 174 167 156 145 128 123 143 126 63 77 55 34 60 86 74 49 50 42 112 114 63 90 85 84 85 92 95 94 80 72 71 86 64 67 81 68 57 45 42
135 146 138 160 175 177 167 152 154 158 152 149 121 110 91 55 67 81 68 61 22 39 65 103 129 93 115 98 90 93 92 110 82 84 88 81 70 49 56 61 61 53 36 31
164 135 189 171 167 172 171 170 179 175 157 150 131 118 96 68 76 86 46 8 32 76 91 118 127 136 120 87 63 62 83 106 90 91 85 77 49 28 45 55 50 48 38 36
182 171 174 181 175 175 180 183 187 178 173 169 148 129 110 70 76 89 57 51 67 94 108 119 133 135 112 76 63 65 72 87 85 72 55 29 13 23 32 40 38 39 43 43
186 180 184 185 183 182 190 191 193 190 184 179 156 144 127 98 87 83 61 72 86 112 128 137 135 118 92 74 78 65 82 85 70 19 357 353 353 31 28 34 34 34 35 33
240 228 216 209 196 186 189 194 195 195 190 174 172 165 151 123 101 105 55 97 115 127 145 137 142 125 80 86 100 84 111 17 2 352 353 20 26 27 28 27 26 24 24 21
235 233 219 205 205 199 196 197 197 189 179 182 181 177 162 145 145 131 109 125 138 145 148 156 151 182 170 51 74 39 4 5 35 23 21 15 17 16 17 19 21 21 18 16
236 227 237 211 226 217 211 214 206 194 184 191 193 192 192 177 174 181 174 172 181 178 178 178 200 232 302 320 20 17 25 41 25 15 11 8 4 5 6 10 12 12 13 17
259 226 225 206 237 231 226 227 211 201 193 198 204 210 204 190 199 195 197 204 202 199 191 196 199 222 310 333 223 273 41 20 9 16 2 4 4 10 13 13 11 7 10 15
287 223 194 219 245 238 216 210 202 203 205 202 201 201 201 198 199 212 215 203 207 205 211 209 222 226 307 274 242 243 323 1 350 351 357 7 12 14 13 10 7 10 14 17
253 211 184 213 216 211 199 194 198 206 212 201 192 195 216 218 208 218 214 195 206 225 225 236 252 251 258 314 293 230 265 327 348 346 336 333 340 352 3 6 10 12 15 17
191 184 182 185 190 199 197 194 195 195 206 217 226 227 231 229 214 212 211 216 232 227 230 237 245 240 238 262 277 264 277 308 320 317 339 337 340 332 349 2 5 7 10 15
237 224 217 226 204 205 201 199 198 198 202 217 230 216 225 213 209 212 230 234 235 223 225 236 243 228 228 239 269 272 252 284 295 303 321 338 345 344 346 357 2 6 9 11
263 255 231 221 225 214 208 209 209 212 225 236 224 242 235 228 221 216 223 234 240 242 241 238 241 231 239 251 259 274 281 261 277 286 303 301 340 352 342 347 354 357 0 5
251 241 233 226 226 223 221 219 218 219 219 237 251 260 261 243 233 232 235 246 251 254 249 239 240 239 236 241 245 249 258 266 282 295 285 269 303 342 343 333 343 350 356 1
Wind_Speed_850mb
9 8 9 6 9 16 11 3 5 3 4 6 6 6 22 22 17 14 14 19 28 32 32 28 30 32 33 32 32 31 31 34 36 43 43 34 27 22 22 23 14 13 17 23
8 6 10 10 7 7 7 4 5 4 3 5 16 27 21 17 16 14 16 25 29 30 30 31 33 35 34 32 30 28 33 36 35 32 43 37 30 26 29 23 8 12 17 17
3 2 11 6 4 2 2 2 1 4 5 17 7 15 14 16 14 15 20 23 28 30 31 34 35 32 31 29 23 28 36 32 28 27 39 39 33 27 23 26 23 20 18 14
4 5 2 6 7 2 5 5 5 2 4 7 14 16 15 10 10 12 18 23 27 28 29 30 31 30 27 25 30 32 31 28 25 31 40 40 36 33 27 24 25 24 20 15
6 4 8 7 6 5 7 9 2 6 11 14 20 18 10 6 10 15 20 23 24 25 29 30 33 28 23 24 30 26 30 25 23 34 36 43 35 32 29 27 28 29 32 26
4 4 3 8 7 21 7 7 3 6 17 18 12 4 5 2 6 15 20 23 19 25 24 24 27 26 26 29 24 29 26 30 31 32 32 39 36 35 37 37 36 36 37 37
3 1 10 7 9 3 7 9 1 2 7 18 6 2 8 3 8 15 21 19 20 25 25 24 25 25 28 23 30 30 28 29 30 30 32 33 30 26 31 34 35 36 37 36
4 3 6 11 5 5 6 7 3 5 5 8 10 10 6 2 9 15 18 15 20 25 25 26 28 25 23 27 29 26 25 27 30 27 30 28 29 30 31 33 43 55 58 59
10 9 5 9 2 15 9 7 5 6 10 12 11 6 3 7 9 11 12 15 20 21 19 21 19 16 19 24 26 25 23 25 25 26 29 29 30 33 38 44 46 44 46 44
5 3 2 7 19 14 9 9 10 13 15 10 7 7 1 5 7 9 10 12 16 14 18 20 13 8 17 26 26 23 21 28 36 38 40 49 59 59 53 42 43 40 41 39
4 6 4 12 14 15 12 14 20 18 9 7 10 6 3 5 9 9 7 9 12 13 15 18 12 8 18 24 25 24 36 48 48 45 52 45 45 43 37 38 42 46 46 41
9 11 12 9 26 19 15 21 19 16 12 11 7 7 5 8 12 11 6 7 11 14 13 15 6 19 23 28 32 35 48 46 42 38 35 39 41 42 43 41 39 41 42 41
5 4 16 12 24 22 19 25 18 14 9 9 8 6 7 11 15 16 20 12 16 16 15 11 6 17 28 36 44 43 39 37 32 27 28 31 34 37 36 30 33 32 34 39
9 16 21 30 20 26 22 23 19 14 10 9 6 5 9 11 11 12 13 12 10 14 14 17 13 16 30 31 31 26 23 24 23 25 28 31 27 31 32 27 28 27 29 29
24 2 5 26 22 29 31 25 22 15 13 14 7 9 9 11 10 9 9 10 10 12 11 14 14 33 27 23 30 32 30 25 24 23 21 16 16 23 18 20 24 27 29 29
28 9 17 26 26 33 33 27 24 18 15 15 10 12 11 11 13 10 8 14 12 11 15 26 46 33 24 21 24 24 21 15 15 15 13 13 18 20 20 19 24 29 33 36
35 27 29 32 32 35 32 26 23 19 17 14 12 12 11 10 14 12 11 11 13 19 32 41 30 20 20 17 16 14 15 13 10 11 16 17 16 14 19 18 23 28 30 33
37 15 15 15 31 33 34 32 28 24 16 17 15 11 11 9 11 10 11 15 17 24 33 24 15 14 12 10 5 7 9 5 12 13 14 16 16 15 19 21 22 24 26 27
46 39 23 24 22 25 28 34 34 25 21 23 20 13 10 7 7 11 9 13 18 25 32 28 19 10 1 5 5 7 12 11 12 17 15 14 16 16 16 18 21 23 26 25
46 43 29 25 28 29 27 32 34 31 22 21 22 17 14 11 9 9 15 9 18 25 25 18 16 9 4 8 6 9 11 9 15 16 14 16 16 16 16 17 22 25 24 23
38 39 25 24 35 38 32 30 37 37 27 22 25 21 14 15 10 14 15 14 17 24 21 19 9 4 3 4 7 2 12 12 11 17 16 17 17 18 19 19 22 24 23 23
36 37 34 26 31 35 28 26 36 34 29 22 20 21 18 20 16 14 14 13 13 23 23 19 17 6 2 5 14 10 5 13 14 13 15 16 17 18 20 20 22 23 23 22
23 28 38 31 26 29 29 35 33 27 24 23 21 23 20 15 18 13 19 19 16 15 22 23 17 11 11 12 5 13 8 10 15 14 15 14 15 15 19 20 22 23 24 24
18 17 16 20 26 32 36 37 29 22 18 19 20 19 18 23 25 19 18 20 17 18 17 18 22 26 21 16 10 9 12 7 16 16 14 14 16 15 15 17 20 21 22 23
10 8 15 22 26 29 34 32 28 25 17 16 15 19 15 16 20 16 18 21 23 24 21 17 18 22 29 23 16 13 12 12 13 15 17 12 13 13 12 15 17 18 21 22
18 15 14 20 24 30 32 29 28 26 22 17 17 16 17 20 18 18 14 15 20 25 26 24 22 24 31 28 26 19 20 15 15 18 20 12 11 12 11 12 14 17 20 20
11 12 18 20 20 31 31 31 29 20 21 20 19 20 20 25 25 25 22 23 24 22 26 32 29 25 28 26 24 20 17 15 17 18 15 12 9 9 12 11 13 16 16 18
Wind_Direction_850mb
35 59 71 80 47 40 60 12 87 304 39 354 349 19 115 118 112 88 46 9 356 348 342 339 338 342 342 342 342 345 343 349 359 3 356 7 8 360 339 327 336 341 330 320
35 52 79 74 40 53 36 51 82 57 283 137 108 115 105 96 85 56 17 3 357 353 348 350 348 348 345 345 343 345 358 6 19 22 26 26 26 18 24 32 26 347 340 359
226 248 0 3 6 53 64 58 1 279 266 154 108 96 93 94 65 26 9 358 354 355 355 351 353 353 0 5 5 11 8 32 35 15 12 17 14 30 44 46 41 27 28 44
138 23 235 245 26 281 192 236 162 154 109 152 143 117 101 84 35 18 2 359 358 3 7 8 2 7 6 16 28 27 31 33 26 16 14 19 26 35 31 32 43 35 42 54
106 143 294 314 307 186 198 287 243 131 149 155 142 119 90 48 18 6 5 3 7 12 6 5 11 10 18 33 31 44 34 41 24 15 24 31 42 48 47 48 45 47 54 60
72 48 234 242 310 332 134 301 353 189 196 166 160 41 266 356 350 1 2 7 15 11 6 16 23 25 31 40 51 51 37 24 28 33 35 36 42 54 57 55 55 58 61 64
95 155 287 253 325 159 58 253 200 262 203 177 175 200 130 72 356 10 13 13 22 16 16 21 17 31 65 55 52 38 34 39 39 41 38 37 43 52 55 52 55 57 58 57
86 59 325 360 20 22 201 151 136 100 124 181 174 136 133 63 8 19 14 28 19 12 30 37 51 78 60 47 32 18 21 29 31 39 38 37 34 50 65 62 73 71 68 67
163 217 275 333 97 118 106 111 147 155 138 139 149 150 154 348 26 20 14 16 13 19 38 51 70 56 35 25 18 12 14 22 33 53 49 50 51 68 79 85 82 69 66 69
73 239 256 139 135 136 116 116 135 151 147 163 155 162 222 11 0 354 350 6 15 36 45 40 68 52 15 10 12 15 32 55 65 70 76 82 84 84 85 81 75 65 60 65
285 260 199 202 186 163 153 144 145 142 139 150 143 124 30 6 6 6 2 12 21 39 43 58 69 39 6 18 44 59 79 80 82 85 100 87 76 76 78 70 65 59 61 61
222 224 186 210 186 175 169 157 152 141 137 136 118 60 62 41 31 2 4 74 47 49 59 80 49 40 48 65 75 87 99 96 90 90 92 73 73 66 73 68 57 52 39 45
348 221 194 166 171 174 167 156 145 128 123 143 126 63 77 55 34 60 86 74 49 50 42 112 114 63 90 85 84 85 92 95 94 80 72 71 86 64 67 81 68 57 45 42
135 146 138 160 175 177 167 152 154 158 152 149 121 110 91 55 67 81 68 61 22 39 65 103 129 93 115 98 90 93 92 110 82 84 88 81 70 49 56 61 61 53 36 31
164 135 189 171 167 172 171 170 179 175 157 150 131 118 96 68 76 86 46 8 32 76 91 118 127 136 120 87 63 62 83 106 90 91 85 77 49 28 45 55 50 48 38 36
182 171 174 181 175 175 180 183 187 178 173 169 148 129 110 70 76 89 57 51 67 94 108 119 133 135 112 76 63 65 72 87 85 72 55 29 13 23 32 40 38 39 43 43
186 180 184 185 183 182 190 191 193 190 184 179 156 144 127 98 87 83 61 72 86 112 128 137 135 118 92 74 78 65 82 85 70 19 357 353 353 31 28 34 34 34 35 33
240 228 216 209 196 186 189 194 195 195 190 174 172 165 151 123 101 105 55 97 115 127 145 137 142 125 80 86 100 84 111 17 2 352 353 20 26 27 28 27 26 24 24 21
235 233 219 205 205 199 196 197 197 189 179 182 181 177 162 145 145 131 109 125 138 145 148 156 151 182 170 51 74 39 4 5 35 23 21 15 17 16 17 19 21 21 18 16
236 227 237 211 226 217 211 214 206 194 184 191 193 192 192 177 174 181 174 172 181 178 178 178 200 232 302 320 20 17 25 41 25 15 11 8 4 5 6 10 12 12 13 17
259 226 225 206 237 231 226 227 211 201 193 198 204 210 204 190 199 195 197 204 202 199 191 196 199 222 310 333 223 273 41 20 9 16 2 4 4 10 13 13 11 7 10 15
287 223 194 219 245 238 216 210 202 203 205 202 201 201 201 198 199 212 215 203 207 205 211 209 222 226 307 274 242 243 323 1 350 351 357 7 12 14 13 10 7 10 14 17
253 211 184 213 216 211 199 194 198 206 212 201 192 195 216 218 208 218 214 195 206 225 225 236 252 251 258 314 293 230 265 327 348 346 336 333 340 352 3 6 10 12 15 17
191 184 182 185 190 199 197 194 195 195 206 217 226 227 231 229 214 212 211 216 232 227 230 237 245 240 238 262 277 264 277 308 320 317 339 337 340 332 349 2 5 7 10 15
237 224 217 226 204 205 201 199 198 198 202 217 230 216 225 213 209 212 230 234 235 223 225 236 243 228 228 239 269 272 252 284 295 303 321 338 345 344 346 357 2 6 9 11
263 255 231 221 225 214 208 209 209 212 225 236 224 242 235 228 221 216 223 234 240 242 241 238 241 231 239 251 259 274 281 261 277 286 303 301 340 352 342 347 354 357 0 5
251 241 233 226 226 223 221 219 218 219 219 237 251 260 261 243 233 232 235 246 251 254 249 239 240 239 236 241 245 249 258 266 282 295 285 269 303 342 343 333 343 350 356 1